SR9WXM Weather Reports


Display with metric or nautical units.
time (UTC)temp
F
wind
direction
speed
MPH
gust
MPH
rain 1hr
in
rain 24hr
in
rain mn
in
humidity
%
barometer
mb
20260502130630 59 92 4.0 7.0 0.00 0.00 0.00 100
20260502130230 59 74 4.0 11.0 0.00 0.00 0.00 100
20260502123430 58 27 4.0 8.0 0.00 0.00 0.00 100
20260502123027 59 42 7.0 9.0 0.00 0.00 0.00 100
20260502122627 58 64 6.0 10.0 0.00 0.00 0.00 100
20260502122228 58 90 5.0 8.0 0.00 0.00 0.00 100
20260502121827 58 94 5.0 8.0 0.00 0.00 0.00 100
20260502121427 58 82 6.0 10.0 0.00 0.00 0.00 100
20260502121025 59 78 5.0 9.0 0.00 0.00 0.00 100
20260502120623 60 84 6.0 9.0 0.00 0.00 0.00 100
20260502120223 60 70 4.0 8.0 0.00 0.00 0.00 100
20260502115823 59 76 5.0 11.0 0.00 0.00 0.00 100
20260502115423 58 99 2.0 6.0 0.00 0.00 0.00 100
20260502115021 58 48 4.0 9.0 0.00 0.00 0.00 100
20260502114621 58 107 7.0 12.0 0.00 0.00 0.00 100
20260502114221 58 42 3.0 7.0 0.00 0.00 0.00 100
20260502113821 58 93 4.0 8.0 0.00 0.00 0.00 100
20260502113421 58 89 4.0 10.0 0.00 0.00 0.00 100
20260502113019 58 100 7.0 10.0 0.00 0.00 0.00 100
20260502112619 58 114 3.0 6.0 0.00 0.00 0.00 100
20260502112219 57 73 5.0 10.0 0.00 0.00 0.00 100
20260502111819 57 88 3.0 7.0 0.00 0.00 0.00 100
20260502111419 57 118 5.0 8.0 0.00 0.00 0.00 100
20260502111017 57 76 4.0 6.0 0.00 0.00 0.00 100
20260502110617 58 96 8.0 13.0 0.00 0.00 0.00 100
20260502110210 59 85 5.0 10.0 0.00 0.00 0.00 100
20260502105810 58 73 3.0 8.0 0.00 0.00 0.00 100
20260502105410 58 69 4.0 8.0 0.00 0.00 0.00 100
20260502105008 57 71 4.0 8.0 0.00 0.00 0.00 100
20260502104608 57 77 6.0 10.0 0.00 0.00 0.00 100
20260502104207 57 71 6.0 9.0 0.00 0.00 0.00 100
20260502103807 57 88 3.0 8.0 0.00 0.00 0.00 100
20260502103407 57 98 2.0 8.0 0.00 0.00 0.00 100
20260502103005 57 55 6.0 11.0 0.00 0.00 0.00 100
20260502102605 57 60 5.0 8.0 0.00 0.00 0.00 100
20260502102205 56 100 2.0 6.0 0.00 0.00 0.00 100
20260502101805 55 62 5.0 12.0 0.00 0.00 0.00 100
20260502101405 55 119 7.0 10.0 0.00 0.00 0.00 100
20260502101003 56 80 4.0 8.0 0.00 0.00 0.00 100
20260502100603 56 97 7.0 9.0 0.00 0.00 0.00 100
20260502100202 56 95 3.0 8.0 0.00 0.00 0.00 100
20260502091357 55 90 4.0 8.0 0.00 0.00 0.00 100
20260502090955 55 77 4.0 9.0 0.00 0.00 0.00 100
20260502090556 55 106 4.0 6.0 0.00 0.00 0.00 100
20260502090156 55 74 4.0 9.0 0.00 0.00 0.00 100
20260502071333 53 88 5.0 8.0 0.00 0.00 0.00 100
20260502070931 52 80 4.0 7.0 0.00 0.00 0.00 100
20260502070531 52 73 4.0 6.0 0.00 0.00 0.00 100
20260502070131 52 57 4.0 8.0 0.00 0.00 0.00 100
20260502065731 52 73 5.0 13.0 0.00 0.00 0.00 100
20260502065332 52 86 4.0 8.0 0.00 0.00 0.00 100
20260502064929 52 77 4.0 7.0 0.00 0.00 0.00 100
20260502064529 52 69 4.0 7.0 0.00 0.00 0.00 100
20260502064129 52 73 5.0 8.0 0.00 0.00 0.00 100
20260502063729 51 76 3.0 6.0 0.00 0.00 0.00 100
20260502063329 51 64 4.0 8.0 0.00 0.00 0.00 100
20260502062927 51 66 4.0 8.0 0.00 0.00 0.00 100
20260502062527 51 82 4.0 8.0 0.00 0.00 0.00 100
20260502062127 51 75 6.0 10.0 0.00 0.00 0.00 100
20260502061727 51 66 4.0 8.0 0.00 0.00 0.00 100
20260502061327 51 62 3.0 8.0 0.00 0.00 0.00 100
20260502060925 51 63 4.0 8.0 0.00 0.00 0.00 100
20260502060525 51 70 4.0 8.0 0.00 0.00 0.00 100
20260502060125 51 67 4.0 7.0 0.00 0.00 0.00 100
20260502055725 51 58 4.0 6.0 0.00 0.00 0.00 100
20260502055316 51 54 4.0 5.0 0.00 0.00 0.00 100
20260502054914 51 76 3.0 7.0 0.00 0.00 0.00 100
20260502054514 50 62 3.0 6.0 0.00 0.00 0.00 100
20260502054114 50 55 5.0 8.0 0.00 0.00 0.00 100
20260502053713 50 65 4.0 8.0 0.00 0.00 0.00 100
20260502053313 50 75 4.0 9.0 0.00 0.00 0.00 100
20260502052911 51 54 3.0 6.0 0.00 0.00 0.00 100
20260502052511 51 76 3.0 8.0 0.00 0.00 0.00 100
20260502052111 50 64 3.0 5.0 0.00 0.00 0.00 100
20260502051711 50 56 3.0 4.0 0.00 0.00 0.00 100
20260502051311 50 60 3.0 7.0 0.00 0.00 0.00 100
20260502050909 50 59 2.0 4.0 0.00 0.00 0.00 100
20260502050509 49 68 4.0 7.0 0.00 0.00 0.00 100
20260502050109 49 55 3.0 4.0 0.00 0.00 0.00 100
20260502045709 49 64 4.0 7.0 0.00 0.00 0.00 100
20260502045308 49 47 5.0 8.0 0.00 0.00 0.00 100
20260502044906 49 65 4.0 6.0 0.00 0.00 0.00 100
20260502044506 49 58 3.0 6.0 0.00 0.00 0.00 100
20260502044106 49 71 3.0 5.0 0.00 0.00 0.00 100
20260502043706 49 62 2.0 4.0 0.00 0.00 0.00 100
20260502043306 49 66 3.0 6.0 0.00 0.00 0.00 100
20260502042904 48 68 3.0 6.0 0.00 0.00 0.00 100
20260502042504 48 52 3.0 6.0 0.00 0.00 0.00 100
20260502042104 48 60 2.0 4.0 0.00 0.00 0.00 100
20260502041704 48 58 1.0 4.0 0.00 0.00 0.00 100
20260502041303 47 59 2.0 4.0 0.00 0.00 0.00 100
20260502040901 47 56 1.0 2.0 0.00 0.00 0.00 100
20260502040502 47 56 1.0 2.0 0.00 0.00 0.00 100
20260502035702 46 56 1.0 2.0 0.00 0.00 0.00 100
20260502035302 46 53 1.0 2.0 0.00 0.00 0.00 100
20260502034859 46 56 2.0 2.0 0.00 0.00 0.00 100
20260502034457 46 56 2.0 3.0 0.00 0.00 0.00 100
20260502034057 45 59 2.0 2.0 0.00 0.00 0.00 100
20260502033657 45 59 2.0 3.0 0.00 0.00 0.00 100
20260502033257 45 56 2.0 2.0 0.00 0.00 0.00 100
20260502032855 45 56 2.0 2.0 0.00 0.00 0.00 100
20260502032455 45 56 2.0 3.0 0.00 0.00 0.00 100
20260502032055 45 56 2.0 2.0 0.00 0.00 0.00 100
20260502031646 45 59 2.0 3.0 0.00 0.00 0.00 100
20260502031246 45 59 1.0 1.0 0.00 0.00 0.00 100
20260502030844 45 56 1.0 2.0 0.00 0.00 0.00 100
20260502030443 45 59 2.0 2.0 0.00 0.00 0.00 100
20260502030043 45 57 1.0 2.0 0.00 0.00 0.00 100
20260502025643 45 56 1.0 1.0 0.00 0.00 0.00 100
20260502025243 45 59 1.0 1.0 0.00 0.00 0.00 100
20260502024842 45 59 0.0 1.0 0.00 0.00 0.00 100
20260502024441 45 59 1.0 2.0 0.00 0.00 0.00 100
20260502024041 44 55 1.0 3.0 0.00 0.00 0.00 100
20260502023641 45 33 1.0 2.0 0.00 0.00 0.00 100
20260502023241 45 64 1.0 3.0 0.00 0.00 0.00 100
20260502022839 45 59 0.0 2.0 0.00 0.00 0.00 100
20260502022438 45 37 2.0 3.0 0.00 0.00 0.00 100
20260502022038 45 50 1.0 3.0 0.00 0.00 0.00 100
20260502021639 45 56 1.0 2.0 0.00 0.00 0.00 100
20260502021239 45 59 1.0 2.0 0.00 0.00 0.00 100
20260502020837 45 59 1.0 3.0 0.00 0.00 0.00 100
20260502020436 45 59 1.0 2.0 0.00 0.00 0.00 100
20260502020036 44 57 1.0 2.0 0.00 0.00 0.00 100
20260502015636 44 57 0.0 0.0 0.00 0.00 0.00 100
20260502015236 45 59 0.0 1.0 0.00 0.00 0.00 100
20260502014834 45 57 0.0 1.0 0.00 0.00 0.00 100
20260502014434 45 57 0.0 1.0 0.00 0.00 0.00 100
20260502014034 44 59 1.0 1.0 0.00 0.00 0.00 100
20260502013634 44 57 0.0 0.0 0.00 0.00 0.00 100
20260502013234 44 56 0.0 0.0 0.00 0.00 0.00 100
20260502012832 44 57 0.0 0.0 0.00 0.00 0.00 100
20260502012432 44 56 0.0 0.0 0.00 0.00 0.00 100
20260502012031 44 59 0.0 0.0 0.00 0.00 0.00 100
20260502011632 44 56 0.0 0.0 0.00 0.00 0.00 100
20260502011232 44 56 0.0 1.0 0.00 0.00 0.00 100
20260502010830 44 59 0.0 0.0 0.00 0.00 0.00 100
20260502010430 44 57 0.0 0.0 0.00 0.00 0.00 100
20260502010030 44 56 0.0 0.0 0.00 0.00 0.00 100
20260502005630 44 59 0.0 1.0 0.00 0.00 0.00 100
20260502005232 44 57 1.0 1.0 0.00 0.00 0.00 100
20260502004828 44 59 0.0 1.0 0.00 0.00 0.00 100
20260502004428 44 57 0.0 0.0 0.00 0.00 0.00 100
20260502004021 44 57 0.0 1.0 0.00 0.00 0.00 100
20260502003620 44 59 1.0 2.0 0.00 0.00 0.00 100
20260502003220 44 70 1.0 3.0 0.00 0.00 0.00 100
20260502002819 44 79 1.0 2.0 0.00 0.00 0.00 100
20260502002418 44 81 1.0 3.0 0.00 0.00 0.00 100
20260502002018 44 73 1.0 2.0 0.00 0.00 0.00 100
20260502001618 45 68 1.0 3.0 0.00 0.00 0.00 100
20260502001218 45 60 1.0 1.0 0.00 0.00 0.00 100
20260502000816 45 63 2.0 3.0 0.00 0.00 0.00 100
20260502000417 44 49 2.0 3.0 0.00 0.00 0.00 100
20260502000016 44 55 1.0 2.0 0.00 0.00 0.00 100
20260501235616 45 46 2.0 3.0 0.00 0.00 0.00 100
20260501235216 45 67 2.0 3.0 0.00 0.00 0.00 100
20260501234814 44 74 2.0 2.0 0.00 0.00 0.00 100
20260501234414 44 77 1.0 2.0 0.00 0.00 0.00 100
20260501234014 45 79 1.0 2.0 0.00 0.00 0.00 100
20260501233612 45 77 2.0 4.0 0.00 0.00 0.00 100
20260501233212 45 73 1.0 2.0 0.00 0.00 0.00 100
20260501232810 45 45 1.0 2.0 0.00 0.00 0.00 100
20260501232410 45 45 1.0 2.0 0.00 0.00 0.00 100
20260501232010 45 45 1.0 2.0 0.00 0.00 0.00 100
20260501231610 46 48 2.0 3.0 0.00 0.00 0.00 100
20260501231209 46 75 1.0 2.0 0.00 0.00 0.00 100
20260501230807 46 51 2.0 4.0 0.00 0.00 0.00 100
20260501230407 46 54 3.0 7.0 0.00 0.00 0.00 100
20260501230007 46 52 2.0 4.0 0.00 0.00 0.00 100
20260501225608 45 42 2.0 3.0 0.00 0.00 0.00 100
20260501225208 45 51 2.0 5.0 0.00 0.00 0.00 100
20260501224806 45 58 1.0 4.0 0.00 0.00 0.00 100
20260501224406 45 70 1.0 1.0 0.00 0.00 0.00 100
20260501224005 45 85 1.0 1.0 0.00 0.00 0.00 100
20260501223605 46 57 1.0 2.0 0.00 0.00 0.00 100
20260501223205 46 38 2.0 4.0 0.00 0.00 0.00 100
20260501222804 46 45 2.0 3.0 0.00 0.00 0.00 100
20260501222403 46 58 2.0 4.0 0.00 0.00 0.00 100
20260501222003 46 52 2.0 5.0 0.00 0.00 0.00 100
20260501221603 45 53 2.0 4.0 0.00 0.00 0.00 100
20260501221203 45 62 2.0 3.0 0.00 0.00 0.00 100
20260501220752 46 60 2.0 3.0 0.00 0.00 0.00 100
20260501220352 46 69 1.0 2.0 0.00 0.00 0.00 100
20260501215951 45 67 2.0 3.0 0.00 0.00 0.00 100
20260501215551 45 50 2.0 4.0 0.00 0.00 0.00 100
20260501215151 45 69 1.0 2.0 0.00 0.00 0.00 100
20260501214749 45 51 1.0 2.0 0.00 0.00 0.00 100
20260501214350 45 80 1.0 1.0 0.00 0.00 0.00 100
20260501213950 45 69 2.0 6.0 0.00 0.00 0.00 100
20260501213549 45 74 1.0 3.0 0.00 0.00 0.00 100
20260501213149 45 72 2.0 3.0 0.00 0.00 0.00 100
20260501212747 45 67 2.0 5.0 0.00 0.00 0.00 100
20260501212347 45 60 1.0 2.0 0.00 0.00 0.00 100
20260501211947 46 79 1.0 3.0 0.00 0.00 0.00 100
20260501211547 46 77 1.0 1.0 0.00 0.00 0.00 100
20260501211147 46 61 2.0 4.0 0.00 0.00 0.00 100
20260501210745 46 66 2.0 5.0 0.00 0.00 0.00 100
20260501210345 46 69 2.0 4.0 0.00 0.00 0.00 100
20260501205945 46 55 2.0 4.0 0.00 0.00 0.00 100
20260501205544 46 58 1.0 2.0 0.00 0.00 0.00 100
20260501205144 46 45 1.0 1.0 0.00 0.00 0.00 100
20260501204742 46 64 1.0 3.0 0.00 0.00 0.00 100
20260501204342 46 78 0.0 2.0 0.00 0.00 0.00 100
20260501203942 46 80 0.0 1.0 0.00 0.00 0.00 100
20260501203542 46 83 1.0 1.0 0.00 0.00 0.00 100
20260501203142 46 83 1.0 1.0 0.00 0.00 0.00 100
20260501202740 46 79 1.0 4.0 0.00 0.00 0.00 100
20260501202340 46 58 1.0 4.0 0.00 0.00 0.00 100
20260501201940 46 62 0.0 1.0 0.00 0.00 0.00 100
20260501201540 46 56 0.0 0.0 0.00 0.00 0.00 100
20260501201140 46 59 0.0 0.0 0.00 0.00 0.00 100
20260501200738 46 59 0.0 0.0 0.00 0.00 0.00 100
20260501200338 46 59 0.0 0.0 0.00 0.00 0.00 100
20260501195938 46 56 0.0 0.0 0.00 0.00 0.00 100
20260501195538 46 56 0.0 0.0 0.00 0.00 0.00 100
20260501195138 46 59 0.0 0.0 0.00 0.00 0.00 100
20260501194736 46 59 0.0 0.0 0.00 0.00 0.00 100
20260501194336 46 59 0.0 0.0 0.00 0.00 0.00 100
20260501193936 46 56 0.0 0.0 0.00 0.00 0.00 100
20260501193536 46 56 1.0 1.0 0.00 0.00 0.00 100
20260501193129 46 59 0.0 1.0 0.00 0.00 0.00 100
20260501192726 46 58 0.0 2.0 0.00 0.00 0.00 100
20260501192324 46 62 0.0 0.0 0.00 0.00 0.00 100
20260501191924 47 62 0.0 1.0 0.00 0.00 0.00 100
20260501191524 46 59 0.0 1.0 0.00 0.00 0.00 100
20260501190722 47 41 0.0 0.0 0.00 0.00 0.00 100
20260501190323 47 41 0.0 0.0 0.00 0.00 0.00 100
20260501185921 47 43 0.0 1.0 0.00 0.00 0.00 100
20260501185521 47 41 0.0 0.0 0.00 0.00 0.00 100
20260501185122 47 40 0.0 0.0 0.00 0.00 0.00 100
20260501184719 47 40 0.0 0.0 0.00 0.00 0.00 100
20260501184321 47 40 0.0 0.0 0.00 0.00 0.00 100
20260501183920 47 40 0.0 0.0 0.00 0.00 0.00 100
20260501183519 47 43 0.0 1.0 0.00 0.00 0.00 100
20260501183119 47 40 1.0 1.0 0.00 0.00 0.00 100
20260501182717 48 75 1.0 3.0 0.00 0.00 0.00 100
20260501182317 48 86 1.0 2.0 0.00 0.00 0.00 100
20260501181917 48 86 0.0 2.0 0.00 0.00 0.00 100
20260501181517 48 88 1.0 2.0 0.00 0.00 0.00 100
20260501181117 48 86 0.0 0.0 0.00 0.00 0.00 100
20260501180715 48 89 0.0 0.0 0.00 0.00 0.00 100
20260501180315 48 86 0.0 0.0 0.00 0.00 0.00 100
20260501175915 48 84 0.0 0.0 0.00 0.00 0.00 100
20260501175514 49 89 1.0 1.0 0.00 0.00 0.00 100
20260501175114 49 52 1.0 3.0 0.00 0.00 0.00 100
20260501174712 50 77 1.0 2.0 0.00 0.00 0.00 100
20260501174312 50 74 1.0 1.0 0.00 0.00 0.00 100
20260501173912 51 88 0.0 0.0 0.00 0.00 0.00 100
20260501173512 51 91 1.0 2.0 0.00 0.00 0.00 100
20260501173112 52 50 4.0 9.0 0.00 0.00 0.00 100
20260501172710 52 59 4.0 9.0 0.00 0.00 0.00 100
20260501172310 52 36 4.0 7.0 0.00 0.00 0.00 100
20260501171910 52 48 6.0 10.0 0.00 0.00 0.00 100
20260501171510 52 23 7.0 10.0 0.00 0.00 0.00 100
20260501171109 53 37 5.0 9.0 0.00 0.00 0.00 100
20260501170708 53 60 3.0 6.0 0.00 0.00 0.00 100
20260501170308 53 39 4.0 7.0 0.00 0.00 0.00 100
20260501165908 53 30 2.0 4.0 0.00 0.00 0.00 100
20260501165459 53 29 2.0 4.0 0.00 0.00 0.00 100
20260501165059 54 24 4.0 6.0 0.00 0.00 0.00 100
20260501164657 54 40 3.0 6.0 0.00 0.00 0.00 100
20260501164257 54 66 3.0 7.0 0.00 0.00 0.00 100
20260501163856 54 58 2.0 4.0 0.00 0.00 0.00 100
20260501163456 54 54 5.0 8.0 0.00 0.00 0.00 100
20260501163056 55 15 6.0 9.0 0.00 0.00 0.00 100
20260501162654 54 6 2.0 6.0 0.00 0.00 0.00 100
20260501162254 53 39 2.0 3.0 0.00 0.00 0.00 100
20260501161854 53 39 2.0 3.0 0.00 0.00 0.00 100
20260501161454 52 38 4.0 5.0 0.00 0.00 0.00 100
20260501161054 52 51 5.0 8.0 0.00 0.00 0.00 100
20260501160652 52 45 5.0 8.0 0.00 0.00 0.00 100
20260501160252 52 33 7.0 12.0 0.00 0.00 0.00 100
20260501155851 52 21 4.0 8.0 0.00 0.00 0.00 100
20260501155451 52 30 5.0 8.0 0.00 0.00 0.00 100
20260501155051 52 50 5.0 8.0 0.00 0.00 0.00 100
20260501154649 53 40 6.0 10.0 0.00 0.00 0.00 100
20260501154250 53 25 6.0 9.0 0.00 0.00 0.00 100
20260501153850 53 24 4.0 10.0 0.00 0.00 0.00 100
20260501153449 53 19 4.0 6.0 0.00 0.00 0.00 100
20260501153049 53 25 3.0 5.0 0.00 0.00 0.00 100
20260501152647 53 36 4.0 8.0 0.00 0.00 0.00 100
20260501152247 53 39 6.0 7.0 0.00 0.00 0.00 100
20260501151847 53 45 4.0 8.0 0.00 0.00 0.00 100
20260501151445 54 32 4.0 8.0 0.00 0.00 0.00 100
20260501151045 54 10 5.0 10.0 0.00 0.00 0.00 100
20260501150643 54 45 3.0 7.0 0.00 0.00 0.00 100
20260501150242 53 35 2.0 5.0 0.00 0.00 0.00 100
20260501145842 54 16 4.0 7.0 0.00 0.00 0.00 100
20260501145442 54 337 4.0 7.0 0.00 0.00 0.00 100
20260501145042 54 340 2.0 6.0 0.00 0.00 0.00 100
20260501144640 53 37 4.0 6.0 0.00 0.00 0.00 100
20260501144240 53 14 5.0 8.0 0.00 0.00 0.00 100
20260501143840 52 22 3.0 6.0 0.00 0.00 0.00 100
20260501143440 52 15 5.0 9.0 0.00 0.00 0.00 100
20260501143040 52 359 5.0 11.0 0.00 0.00 0.00 100
20260501142638 52 20 6.0 8.0 0.00 0.00 0.00 100
20260501142238 52 5 5.0 8.0 0.00 0.00 0.00 100
20260501141831 52 1 4.0 6.0 0.00 0.00 0.00 100
20260501141431 52 55 3.0 5.0 0.00 0.00 0.00 100